(307111) = 2002 CD62

Discovered at Socorro on 2002-02-06 by LINEAR.

Orbit

Orbit type: Main Belt

Note: WebGL enabled browser required.

epoch2024-03-31.0
epoch JD2460400.5
perihelion date2023-06-13.67983
perihelion JD2460109.17983
argument of perihelion (°)122.07339
ascending node (°)84.65476
inclination (°)7.49839
eccentricity0.2588433
perihelion distance (AU)1.7045263
Tisserand w.r.t. Jupiter3.5
ΔV w.r.t. Earth (km/sec)8.4
semimajor axis (AU)2.2998191
mean anomaly (°)82.32541
mean daily motion (°/day)0.28259430
aphelion distance (AU)2.895
period (years)3.49
P-vector [x]-0.88593576
P-vector [y]-0.45725043
P-vector [z]-0.07771660
Q-vector [x]0.44523679
Q-vector [y]-0.79149737
Q-vector [z]-0.41868378
absolute magnitude16.88
phase slope0.15
uncertainty0
referenceMPEC 2024-D99
observations used543
oppositions13
arc length (days)7823
first opposition used2002
last opposition used2023
residual rms (arc-secs)0.64
perturbers coarse indicatorM-v
perturbers precise indicator003Ek
first observation date used2002-01-12.0
last observation date used2023-06-14.0
computer nameMPCLINUX
JD of orbit computation2456966.915280
perihelion JD uncertainty (days)7.5112E-05
argument of perihelion uncertainty (°)4.6812E-05
ascending node uncertainty (°)4.3151E-05
inclination uncertainty (°)6.7059E-06
eccentricity uncertainty 5.2317E-08
perihelion distance uncertainty (AU)1.1117E-07
Minimum Orbit Intersection Distances (in AU)
for orbit epoch: 2460400.5, reference: E2024-D99
Mercury1.26902
Venus0.98511
Earth0.71368
Mars0.19039
Jupiter2.08884
Saturn6.32434
Uranus16.4952
Neptune26.9391

Observations

555 total observations over interval: 2002 01 12.39903 – 2023 06 14.553405
These data are available for download (format description).

Date (UT) J2000 RA J2000 Dec Magn Location Ref
2002 01 12.39903 10 15 54.53 +21 04 42.2 20.4   608 – Haleakala-AMOS MPS 54718
2002 01 12.40916 10 15 54.48 +21 04 47.6 20.2   608 – Haleakala-AMOS MPS 54718
2002 01 12.42004 10 15 54.38 +21 04 53.0 20.6   608 – Haleakala-AMOS MPS 54718
2002 02 03.48269 10 05 50.74 +24 42 41.0 18.7   644 – Palomar Mountain/NEAT MPS 54718
2002 02 03.49308 10 05 50.22 +24 42 47.3 18.7   644 – Palomar Mountain/NEAT MPS 54718
2002 02 03.50340 10 05 49.68 +24 42 54.0 18.8   644 – Palomar Mountain/NEAT MPS 54718
2002 02 06.31875 10 03 26.90 +25 12 33.3 18.8   704 – Lincoln Laboratory ETS, New Mexico MPS 50209
2002 02 06.33369 10 03 26.04 +25 12 41.7 19.0   704 – Lincoln Laboratory ETS, New Mexico MPS 50209
2002 02 06.34867 10 03 25.15 +25 12 52.0 19.0   704 – Lincoln Laboratory ETS, New Mexico MPS 50209
2002 02 06.36366 10 03 24.38 +25 13 00.3 19.2   704 – Lincoln Laboratory ETS, New Mexico MPS 50209
2002 02 06.37884 10 03 23.46 +25 13 09.5 19.2   704 – Lincoln Laboratory ETS, New Mexico MPS 50209
2002 02 10.31611 09 59 45.20 +25 53 27.3 18.8   704 – Lincoln Laboratory ETS, New Mexico MPS 50209
2002 02 10.33039 09 59 44.30 +25 53 36.5 18.8   704 – Lincoln Laboratory ETS, New Mexico MPS 50209
2002 02 10.34468 09 59 43.44 +25 53 44.4 18.9   704 – Lincoln Laboratory ETS, New Mexico MPS 50209
2002 02 10.35917 09 59 42.55 +25 53 53.0 18.8   704 – Lincoln Laboratory ETS, New Mexico MPS 50209
2002 02 10.37591 09 59 41.54 +25 54 02.4 18.7   704 – Lincoln Laboratory ETS, New Mexico MPS 50209
2002 02 22.27522 09 47 38.93 +27 38 08.4 18.2   644 – Palomar Mountain/NEAT MPS 57289
2002 02 22.28582 09 47 38.25 +27 38 13.1 18.2   644 – Palomar Mountain/NEAT MPS 57289
2002 02 22.29619 09 47 37.60 +27 38 17.8 18.1   644 – Palomar Mountain/NEAT MPS 57289
2002 03 20.20860 09 29 03.29 +28 50 21.3 19.6   704 – Lincoln Laboratory ETS, New Mexico MPS 54718
2002 03 20.22567 09 29 03.02 +28 50 19.2 19.4   704 – Lincoln Laboratory ETS, New Mexico MPS 54718
2002 03 20.24917 09 29 02.60 +28 50 15.8 19.6   704 – Lincoln Laboratory ETS, New Mexico MPS 54718
2002 03 20.26047 09 29 02.29 +28 50 15.8 20.1   704 – Lincoln Laboratory ETS, New Mexico MPS 54718
2002 03 21.13957 09 28 49.93 +28 48 39.2 19.3   644 – Palomar Mountain/NEAT MPS 54718
2002 03 21.16042 09 28 49.58 +28 48 37.0 19.1   644 – Palomar Mountain/NEAT MPS 54718
2002 03 21.18149 09 28 49.22 +28 48 34.8 19.3   644 – Palomar Mountain/NEAT MPS 54718
2002 04 01.14773 09 28 56.91 +28 09 27.7 19.0   644 – Palomar Mountain/NEAT MPS 54718
2002 04 01.16859 09 28 57.17 +28 09 21.2 19.2   644 – Palomar Mountain/NEAT MPS 54718
2002 04 01.18982 09 28 57.42 +28 09 15.0 19.1   644 – Palomar Mountain/NEAT MPS 54718
2002 04 04.22224 09 29 53.34 +27 52 44.5 18.8   704 – Lincoln Laboratory ETS, New Mexico MPS 54718
2002 04 04.23389 09 29 53.60 +27 52 40.7 20.0   704 – Lincoln Laboratory ETS, New Mexico MPS 54718
2002 04 04.24561 09 29 53.66 +27 52 35.9 19.9   704 – Lincoln Laboratory ETS, New Mexico MPS 54718
2002 04 04.25743 09 29 54.00 +27 52 32.3 20.2   704 – Lincoln Laboratory ETS, New Mexico MPS 54718
2002 04 09.14764 09 32 11.92 +27 21 20.3 19.3 R 699 – Lowell Observatory-LONEOS MPS 54718
2002 04 09.16771 09 32 12.63 +27 21 11.5   699 – Lowell Observatory-LONEOS MPS 54718
2002 04 09.18782 09 32 13.20 +27 21 03.1   699 – Lowell Observatory-LONEOS MPS 54718
2002 04 09.20788 09 32 13.82 +27 20 55.5   699 – Lowell Observatory-LONEOS MPS 54718
2007 10 20.29900 02 15 41.86 +03 47 21.6 20.5 V G96 – Mt. Lemmon Survey MPS 263065
2007 10 20.30456 02 15 41.54 +03 47 20.1 20.8 V G96 – Mt. Lemmon Survey MPS 263065
2007 10 20.31008 02 15 41.22 +03 47 18.5 20.8 V G96 – Mt. Lemmon Survey MPS 263065
2007 10 20.31560 02 15 40.86 +03 47 17.3 20.8 V G96 – Mt. Lemmon Survey MPS 263065
2008 11 01.44181 09 20 24.07 +19 03 52.4 20.7 V G96 – Mt. Lemmon Survey MPS 263065
2008 11 01.44235 09 20 24.10 +19 03 52.4 20.0 V G96 – Mt. Lemmon Survey MPS 263065
2008 11 01.45383 09 20 25.18 +19 03 50.0 21.2 V G96 – Mt. Lemmon Survey MPS 263065
2008 11 01.45439 09 20 25.22 +19 03 50.5 21.0 V G96 – Mt. Lemmon Survey MPS 263065
2008 11 01.46584 09 20 26.30 +19 03 48.0 21.2 V G96 – Mt. Lemmon Survey MPS 263065
2008 11 01.46639 09 20 26.37 +19 03 47.4 21.9 V G96 – Mt. Lemmon Survey MPS 263065
2008 11 01.47794 09 20 27.38 +19 03 45.3 22.1 V G96 – Mt. Lemmon Survey MPS 263065
2008 11 01.47851 09 20 27.42 +19 03 45.2 21.8 V G96 – Mt. Lemmon Survey MPS 263065
2008 12 03.46747 10 04 11.28 +17 47 40.0 20.6 V G96 – Mt. Lemmon Survey MPS 267410
2008 12 03.47405 10 04 11.74 +17 47 40.3 20.8 V G96 – Mt. Lemmon Survey MPS 267410
2008 12 03.48060 10 04 12.18 +17 47 39.9 20.8 V G96 – Mt. Lemmon Survey MPS 267410
2008 12 03.48724 10 04 12.61 +17 47 39.8 20.7 V G96 – Mt. Lemmon Survey MPS 267410
2009 01 17.33892 10 31 32.20 +20 32 19.1 19.0   704 – Lincoln Laboratory ETS, New Mexico MPS 272279
2009 01 17.35122 10 31 32.11 +20 32 25.8 19.2   704 – Lincoln Laboratory ETS, New Mexico MPS 272279
2009 01 17.36347 10 31 32.07 +20 32 32.0 19.2   704 – Lincoln Laboratory ETS, New Mexico MPS 272279
2009 01 17.37573 10 31 31.93 +20 32 37.8 19.3   704 – Lincoln Laboratory ETS, New Mexico MPS 272279
2009 01 24.80110 10 29 57.41 +21 41 38.8 18.9 R D29 – Purple Mountain Observatory, XuYi Station MPS 272279
2009 01 24.81526 10 29 57.06 +21 41 47.3 19.1 R D29 – Purple Mountain Observatory, XuYi Station MPS 272279
2009 01 24.83173 10 29 56.68 +21 41 56.9 19.4 R D29 – Purple Mountain Observatory, XuYi Station MPS 272279
2009 01 28.34587 10 28 30.18 +22 17 36.5 18.7 V 703 – Catalina Sky Survey MPS 272279
2009 01 28.35110 10 28 30.07 +22 17 39.5 18.8 V 703 – Catalina Sky Survey MPS 272279
2009 01 28.35591 10 28 29.92 +22 17 43.8 18.6 V 703 – Catalina Sky Survey MPS 272279
2009 01 28.36079 10 28 29.78 +22 17 46.2 19.1 V 703 – Catalina Sky Survey MPS 272279
2009 01 31.31556 10 26 56.79 +22 48 42.1 19.0   704 – Lincoln Laboratory ETS, New Mexico MPS 272279
2009 01 31.32739 10 26 56.35 +22 48 49.5 19.0   704 – Lincoln Laboratory ETS, New Mexico MPS 272279
2009 01 31.33932 10 26 55.94 +22 48 56.8 19.1   704 – Lincoln Laboratory ETS, New Mexico MPS 272279
2009 01 31.35105 10 26 55.51 +22 49 04.6 19.5   704 – Lincoln Laboratory ETS, New Mexico MPS 272279
2009 01 31.36302 10 26 54.99 +22 49 11.9 19.4   704 – Lincoln Laboratory ETS, New Mexico MPS 272279
2009 02 03.44932 10 24 58.86 +23 22 03.3 18.8 V G96 – Mt. Lemmon Survey MPS 272279
2009 02 03.45446 10 24 58.64 +23 22 06.7 18.8 V G96 – Mt. Lemmon Survey MPS 272279
2009 02 03.45951 10 24 58.42 +23 22 09.7 18.8 V G96 – Mt. Lemmon Survey MPS 272279
2009 02 03.46462 10 24 58.21 +23 22 13.0 18.8 V G96 – Mt. Lemmon Survey MPS 272279
2009 02 15.28607 10 15 13.68 +25 25 05.1 17.5 V 703 – Catalina Sky Survey MPS 276448
2009 02 15.29156 10 15 13.21 +25 25 10.2 18.2 V 703 – Catalina Sky Survey MPS 276448
2009 02 15.29707 10 15 12.81 +25 25 13.8 18.2 V 703 – Catalina Sky Survey MPS 276448
2009 02 15.30234 10 15 12.49 +25 25 15.6 18.2 V 703 – Catalina Sky Survey MPS 276448
2009 02 21.27345 10 09 22.39 +26 19 40.5 18.6 V 703 – Catalina Sky Survey MPS 277529
2009 02 21.27995 10 09 21.96 +26 19 43.2 18.7 V 703 – Catalina Sky Survey MPS 277529
2009 02 21.28669 10 09 21.56 +26 19 47.1 18.5 V 703 – Catalina Sky Survey MPS 277529
2009 02 21.29333 10 09 21.13 +26 19 49.8 18.6 V 703 – Catalina Sky Survey MPS 277529
2009 03 03.21446 09 59 40.84 +27 28 05.8 18.8 V 703 – Catalina Sky Survey MPS 278560
2009 03 03.22057 09 59 40.52 +27 28 07.7 18.9 V 703 – Catalina Sky Survey MPS 278560
2009 03 03.22674 09 59 40.12 +27 28 09.4 18.7 V 703 – Catalina Sky Survey MPS 278560
2009 03 03.23286 09 59 39.76 +27 28 11.9 18.9 V 703 – Catalina Sky Survey MPS 278560
2009 04 19.19030 09 54 32.17 +25 19 43.5 19.5   704 – Lincoln Laboratory ETS, New Mexico MPS 284242
2009 04 19.20129 09 54 32.62 +25 19 37.3 19.7   704 – Lincoln Laboratory ETS, New Mexico MPS 284242
2009 04 19.21216 09 54 33.18 +25 19 32.1 20.0   704 – Lincoln Laboratory ETS, New Mexico MPS 284242
2009 04 19.23361 09 54 34.12 +25 19 19.5 19.6   704 – Lincoln Laboratory ETS, New Mexico MPS 284242
2009 05 17.18559 10 27 56.16 +19 57 44.6 20.2 V G96 – Mt. Lemmon Survey MPS 286857
2009 05 17.19260 10 27 56.77 +19 57 39.2 19.9 V G96 – Mt. Lemmon Survey MPS 286857
